Location: Gwatt
(46.7204°N, 7.6223°E)
Time: 01:37:53
(UTC+00:00)

Envisat - Pass Details

Date: 04 December 2020
Orbit: 764 x 766 km, 98.1° (Epoch: 19 January)

Event Time Altitude Azimuth Distance (km) Brightness Sun altitude
Rises 05:06:10 0° 17° (NNE) 3,245 6.3 -18.3°
Reaches altitude 10° 05:08:33 10° 22° (NNE) 2,314 5.6 -17.9°
Maximum altitude 05:13:32 54° 100° (E) 933 3.8 -17.1°
Drops below altitude 10° 05:18:29 10° 177° (S) 2,296 5.7 -16.3°
Sets 05:20:50 0° 182° (S) 3,217 6.4 -15.9°
